Simultaneous Nadir Overpasses (SNOs) Predictions

Prediction of SNOs between LANDSAT-8 and METOP-B Satellite Orbit:

Table of predicted SNOs for the next 14.0 days since TLE Epoch: 2/23/2018
Index Date (LANDSAT-8) Time (LANDSAT-8) Lat,Lon (LANDSAT-8) SZA (LANDSAT-8 ) Date (METOP-B) Time (METOP-B) Lat,Lon (METOP-B) SZA (METOP-B ) Distance(km) Time Diff (sec)
1 02/24/2018 11:13:39 81.13, 51.26 92.17 02/24/2018 11:13:12 81.14, 51.30 92.17 0.82 27
2 02/24/2018 12:03:05 -81.15,-140.82 87.80 02/24/2018 12:03:51 -81.16,-140.73 87.77 1.73 46
3 02/27/2018 06:47:52 81.15, 118.00 91.18 02/27/2018 06:47:33 81.15, 118.01 91.17 0.55 19
4 02/27/2018 07:37:18 -81.17, -74.05 88.79 02/27/2018 07:38:12 -81.17, -74.01 88.77 0.71 54
5 03/02/2018 02:22:05 81.15,-175.65 90.12 03/02/2018 02:21:54 81.15,-175.66 90.11 0.16 11
6 03/02/2018 03:11:31 -81.17, -7.68 89.85 03/02/2018 03:12:33 -81.17, -7.68 89.83 0.18 62
7 03/04/2018 21:56:19 81.14,-109.34 89.04 03/04/2018 21:56:16 81.14,-109.34 89.04 0.44 3
8 03/04/2018 22:45:45 -81.16, 58.66 90.93 03/04/2018 22:46:55 -81.16, 58.64 90.90 0.41 70
9 03/07/2018 16:41:07 -81.13, 149.31 92.05 03/07/2018 16:39:58 -81.13, 149.33 92.07 0.35 69




NCC Satellite Simultaneous Nadir Overpasses (SNOs) Prediction Service
